Regional Weather Roundup
Issued by NWS

Home | Current Version | Previous Version | Graphics & Text | Print | Product List | Glossary On
Versions: 1 2 3 4 5 6 7 8 9 10 11 12 13 14 15 16 17 18 19 20 21 22 23 24 25 26 27 28 29 30 31 32 33 34 35 36 37 38 39 40 41 42 43 44 45 46 47 48 49 50
000
ASUS43 KDMX 230701
RWRIA

WEATHER ROUNDUP FOR IOWA
NATIONAL WEATHER SERVICE DES MOINES IA
100 AM CST MON JAN 23 2017

NOTE: "FAIR" INDICATES FEW OR NO CLOUDS BELOW 12,000 FEET WITH NO
SIGNIFICANT WEATHER AND/OR OBSTRUCTIONS TO VISIBILITY.

* - THESE STATIONS ARE NOT NWS STATIONS...THUS NOT UNDER NWS
QUALITY CONTROL.  THEY ALSO DO NOT REPORT WEATHER SUCH
AS PRECIPITATION OR FOG.

IAZ001>003-012>014-020>022-031>034-043>046-230800-
   NORTHWEST IOWA

CITY           SKY/WX    TMP DP  RH WIND       PRES   REMARKS
CARROLL *      CLOUDY    32  32 100 NW12      29.86F WCI  23
CHEROKEE *     CLOUDY    31  29  94 N14       29.86S WCI  20
DENISON *      CLOUDY    32  28  86 NW10      29.85S WCI  24
LE MARS *      CLOUDY    32  28  86 NW13      29.88S WCI  22
ORANGE CITY *  CLOUDY    30  28  93 NW7G16    29.85S WCI  23
SHELDON *      CLOUDY    32  32 100 NW15      29.83F WCI  22
SIOUX CITY     CLOUDY    33  28  81 NW9       29.88F WCI  25
SPENCER          N/A    N/A N/A N/A MISG      29.84S
STORM LAKE *   CLOUDY    30  28  93 NW12G18   29.85R WCI  21
$$

IAZ055>058-069>071-079>083-090>094-230800-
   SOUTHWEST IOWA

CITY           SKY/WX    TMP DP  RH WIND       PRES   REMARKS
ATLANTIC *     CLOUDY    32  30  93 NW9       29.88F WCI  24
AUDUBON *      CLOUDY    30  27  86 NW8       29.87S WCI  23
CLARINDA *     PTCLDY    28  28 100 CALM      29.92R FOG
COUNCIL BLFS * CLOUDY    30  30 100 NW14      29.90R WCI  20
CRESTON *      CLOUDY    32  32 100 N12       29.88S WCI  23
HARLAN  *      CLOUDY    32  32 100 NW10      29.91S WCI  24
LAMONI         CLOUDY    34  33  96 NW7       29.86S WCI  28
RED OAK *      CLOUDY    32  32 100 N7        29.90S WCI  26
SHENANDOAH *   FOG       27  27 100 CALM      29.92R VSB<1/4
$$

IAZ047>049-059>061-072>074-084-230800-
   CENTRAL IOWA

CITY           SKY/WX    TMP DP  RH WIND       PRES   REMARKS
AMES           CLOUDY    33  33 100 NW12      29.86R FOG     WCI  24
ANKENY *       CLOUDY    34  32  93 NW9       29.87S FOG     WCI  26
BOONE *        CLOUDY    32  32 100 NW7       29.84F FOG     WCI  26
CHARITON *     CLOUDY    34  34 100 NW9       29.85S FOG     WCI  26
DES MOINES     DRIZZLE   34  33  96 NW9       29.87S FOG     WCI  27
GRINNELL*      CLOUDY    35  35  97 NW8       29.84S FOG     WCI  29
KNOXVILLE *    CLOUDY    36  36 100 NW9       29.84S FOG     WCI  29
MARSHALLTOWN   CLOUDY    35  35 100 NW9       29.83R FOG     WCI  28
NEWTON *       CLOUDY    36  36 100 NW9       29.84S FOG     WCI  29
PELLA *        CLOUDY    37  36  97 NW6       29.86S FOG     WCI  32
PERRY *        CLOUDY    32  31  96 NW6       29.87S FOG     WCI  26
$$

IAZ004>006-015-016-023>025-035-036-230800-
   NORTH CENTRAL IOWA

CITY           SKY/WX    TMP DP  RH WIND       PRES   REMARKS
ALGONA *       CLOUDY    32  32 100 N9        29.84R WCI  24
CLARION *      CLOUDY    32  32 100 NW9       29.84S FOG     WCI  24
ESTHERVILLE    CLOUDY    31  30  96 NW8       29.83R WCI  23
FORT DODGE *   CLOUDY    30  28  93 NW6       29.85S WCI  24
MASON CITY     CLOUDY    31  31 100 NW10      29.84R FOG     WCI  22
FOREST CITY *  CLOUDY    32  32 100 NW9       29.83R FOG     WCI  24
WEBSTER CITY * CLOUDY    32 N/A N/A NW10      29.83S FOG     WCI  24
IOWA FALLS *   CLOUDY    35  34  96 NW6       29.84S FOG     WCI  30
$$

IAZ007>011-017>019-026>030-037>042-050>054-066-230800-
   NORTHEAST IOWA

CITY           SKY/WX    TMP DP  RH WIND       PRES   REMARKS
CEDAR RAPIDS   CLOUDY    35  33  92 NW8       29.79F WCI  29
CHARLES CITY * CLOUDY    34  34 100 NW10      29.81S FOG     WCI  26
CLINTON *      CLOUDY    35  35 100 N6        29.78R FOG     WCI  30
DECORAH *      CLOUDY    36  34  93 CALM      29.77S
DUBUQUE        CLOUDY    35  34  96 NW8       29.76F WCI  29
MONTICELLO *   CLOUDY    36  34  93 NW3       29.78S FOG
OELWEIN *      CLOUDY    34  34 100 NW10      29.80S FOG     WCI  26
WATERLOO       CLOUDY    35  33  92 NW7       29.82R FOG     WCI  29
$$

IAZ064-065-067-068-078-230800-
   EAST CENTRAL IOWA

CITY           SKY/WX    TMP DP  RH WIND       PRES   REMARKS
DAVENPORT      CLOUDY    35  34  96 NW6       29.77F FOG     WCI  30
IOWA CITY      CLOUDY    37  34  89 NW9       29.81F WCI  30
MUSCATINE *    CLOUDY    37  34  87 NW8       29.80S WCI  31
QUAD CITIES    CLOUDY    38  34  85 N5        29.77S WCI  34
$$

IAZ062-063-075>077-085>089-095>099-230800-
   SOUTHEAST IOWA

CITY           SKY/WX    TMP DP  RH WIND       PRES   REMARKS
BURLINGTON     CLOUDY    37  35  92 NW9       29.78S WCI  30
FAIRFIELD *    CLOUDY    36  36 100 NW12      29.81S WCI  27
FORT MADISON * CLOUDY    37  36  93 NW9       29.80S WCI  31
KEOKUK *       CLOUDY    39 N/A N/A NW8       29.79S WCI  34
OSKALOOSA *    CLOUDY    35  35  97 NW7       29.84S FOG     WCI  29
CENTERVILLE *  CLOUDY    36  36 100 NW6       29.85S WCI  31
OTTUMWA        CLOUDY    37  34  89 NW13      29.83S WCI  29
WASHINGTON *   CLOUDY    36  36 100 NW12      29.81S WCI  27
$$

ABBREVIATIONS USED IN REMARKS
   TC - TEMPERATURES IN CELSIUS
  WCI - WIND CHILL INDEX
   HX - HEAT INDEX
  VSB - VISIBILITY
$$




USA.gov is the U.S. government's official web portal to all federal, state and local government web resources and services.